Hourly Data Report for October 04, 2015

All times are specified in Local Standard Time (LST). Add 1 hour to adjust for Daylight Saving Time where and when it is observed.

ARVIAT A
NUNAVUT

61°05'38.000" N
94°04'18.000" W
10.40 m
2300427
71174
YEK

Download Data

Hourly Data (October 2015)
Hourly Data Report for October 4, 2015
Temp Definition
°C
Dew Point Temp Definition
°C
Rel Hum Definition
%
Wind Dir Definition
10's deg

Wind Spd Definition
km/h
Visibility Definition
km
Stn Press Definition
kPa
Hmdx Definition


Wind Chill Definition


Weather Definition


TIME
00:00 Legend Double Dagger 2.1 -0.1 85 2 26 16.1 102.87     LegendNANA
01:00 Legend Double Dagger 1.7 0.1 89 1 24 16.1 102.89     LegendNANA
02:00 Legend Double Dagger 1.8 0.2 89 2 22 16.1 102.91     LegendNANA
03:00 Legend Double Dagger 1.8 0.2 89 2 24 16.1 102.94     LegendNANA
04:00 Legend Double Dagger 1.9 0.4 90 2 24 16.1 102.94     LegendNANA
05:00 Legend Double Dagger 2.0 0.1 87 3 22 16.1 102.93     LegendNANA
06:00 Legend Double Dagger 2.0 -0.3 85 4 21 16.1 102.90     LegendNANA
07:00 Legend Double Dagger 1.5 0.1 91 1 15 16.1 102.92     LegendNANA
08:00 Legend Double Dagger 2.0 -0.3 85 6 18 16.1 102.87     LegendNANA
09:00 Legend Double Dagger 1.9 -0.1 86 5 24 16.1 102.82     Rain
10:00 Legend Double Dagger 2.2 0.2 86 5 22 16.1 102.82     Rain
11:00 Legend Double Dagger 2.1 0.6 90 3 21 16.1 102.78     Rain
12:00 Legend Double Dagger 1.5 1.4 99 2 22 16.1 102.74     Rain
13:00 Legend Double Dagger 1.9 1.2 95 5 22 16.1 102.68     Rain
14:00 Legend Double Dagger 1.8 1.0 94 4 18 16.1 102.62     Rain
15:00 Legend Double Dagger 1.9 1.3 96 4 21 16.1 102.57     Rain
16:00 Legend Double Dagger 2.1 1.4 95 6 18 16.1 102.54     Rain
17:00 Legend Double Dagger 2.2 1.1 92 6 18 16.1 102.50     LegendNANA
18:00 Legend Double Dagger 2.1 0.8 91 3 11 16.1 102.50     LegendNANA
19:00 Legend Double Dagger 1.8 0.5 91 3 15 16.1 102.47     Rain
20:00 Legend Double Dagger 1.6 0.6 93 7 15 16.1 102.42     LegendNANA
21:00 Legend Double Dagger 1.5 0.4 92 7 13 16.1 102.39     LegendNANA
22:00 Legend Double Dagger 1.3 -0.2 90 5 13 16.1 102.34     LegendNANA
23:00 Legend Double Dagger 1.6 0.2 90 9 9 16.1 102.30     LegendNANA

Notes on Data Quality.

Legend

  • E = Estimated
  • M = Missing
  • NA = Not Available
  • ‡ = Partner data that is not subject to review by the National Climate Archives
Date modified: